Change the Weather History Date:

Wednesday, October 17, 2012

  Actual Average Record
Temperature  
Mean Temperature 66 °F -  
Max Temperature 75 °F 69 °F 84 °F (2010)
Min Temperature 55 °F 48 °F 35 °F (2001)
Cooling Degree Days 1    
Growing Degree Days 16 (Base 50)    
Moisture  
Dew Point 58 °F    
Average Humidity 80    
Maximum Humidity 100    
Minimum Humidity 65    
Precipitation  
Precipitation 0.28 in - - ()
Sea Level Pressure  
Sea Level Pressure 29.63 in    
Wind  
Wind Speed 16 mph (SSW)    
Max Wind Speed 29 mph    
Max Gust Speed 36 mph    
Visibility 10 miles    
Events Thunderstorm    
Averages and records for this station are not official NWS values.
T = Trace of Precipitation, MM = Missing Value Source: NWS Daily Summary

Daily Weather History Graph

Daily Weather History Graph

Search for Another Location

Airport or City:

Trip Planner

Search our weather history database for the weather conditions in past years. The results will help you decide how hot, cold, wet, or windy it might be!

Date:

Astronomy

Oct. 17, 2012 Rise Set
Actual Time 7:12 AM CDT 6:24 PM CDT
Civil Twilight 6:46 AM CDT 6:50 PM CDT
Nautical Twilight 6:17 AM CDT 7:20 PM CDT
Astronomical Twilight 5:47 AM CDT 7:49 PM CDT
Moon 9:41 AM CDT (10/17) 8:06 PM CDT (10/17)
Length of Visible Light 12h 03m
Length of Day
11h 11m
Waxing Crescent, 7% of the Moon is Illuminated
Oct 17
Waxing Crescent
Oct 21
First Quarter
Oct 29
Full
Nov 6
Last Quarter
Nov 13
New

Hourly Weather History & Observations

Time (CDT) Temp. Dew Point Humidity Pressure Visibility Wind Dir Wind Speed Gust Speed Precip Events Conditions
12:15 AM 57.2 °F 53.6 °F 88% 29.75 in 10.0 mi South 12.7 mph - N/A   Clear
12:55 AM 57.2 °F 55.4 °F 94% 29.74 in 10.0 mi South 12.7 mph - N/A   Clear
1:15 AM 57.2 °F 55.4 °F 94% 29.74 in 10.0 mi South 10.4 mph - N/A   Clear
1:55 AM 57.2 °F 55.4 °F 94% 29.73 in 10.0 mi South 10.4 mph - N/A   Clear
2:15 AM 59.0 °F 55.4 °F 88% 29.73 in 10.0 mi South 13.8 mph 17.3 mph N/A   Clear
2:35 AM 59.0 °F 53.6 °F 82% 29.72 in 10.0 mi South 15.0 mph 20.7 mph N/A   Clear
2:55 AM 59.0 °F 53.6 °F 82% 29.71 in 10.0 mi South 16.1 mph 20.7 mph N/A   Clear
3:15 AM 59.0 °F 53.6 °F 82% 29.71 in 10.0 mi South 12.7 mph - N/A   Clear
3:35 AM 59.0 °F 53.6 °F 82% 29.70 in 10.0 mi South 13.8 mph - N/A   Clear
4:15 AM 60.8 °F 53.6 °F 77% 29.68 in 10.0 mi South 17.3 mph 23.0 mph N/A   Clear
4:35 AM 59.0 °F 53.6 °F 82% 29.68 in 10.0 mi South 16.1 mph - N/A   Clear
5:15 AM 59.0 °F 53.6 °F 82% 29.69 in 10.0 mi South 12.7 mph - N/A   Clear
5:35 AM 59.0 °F 55.4 °F 88% 29.69 in 10.0 mi South 12.7 mph - N/A   Scattered Clouds
6:15 AM 60.8 °F 55.4 °F 82% 29.69 in 10.0 mi South 11.5 mph - N/A   Overcast
6:35 AM 59.0 °F 55.4 °F 88% 29.69 in 10.0 mi South 11.5 mph - N/A   Scattered Clouds
7:15 AM 60.8 °F 55.4 °F 82% 29.67 in 10.0 mi South 16.1 mph - N/A   Clear
7:35 AM 60.8 °F 55.4 °F 82% 29.67 in 10.0 mi South 15.0 mph 21.9 mph N/A   Clear
7:55 AM 59.0 °F 55.4 °F 88% 29.66 in 10.0 mi South 17.3 mph 23.0 mph N/A   Clear
8:35 AM 62.6 °F 55.4 °F 77% 29.67 in 10.0 mi South 19.6 mph 26.5 mph N/A   Partly Cloudy
8:55 AM 64.4 °F 55.4 °F 73% 29.67 in 10.0 mi South 19.6 mph 24.2 mph N/A   Partly Cloudy
9:35 AM 66.2 °F 57.2 °F 73% 29.67 in 10.0 mi South 26.5 mph 32.2 mph N/A   Overcast
9:55 AM 66.2 °F 57.2 °F 73% 29.67 in 10.0 mi South 20.7 mph 27.6 mph N/A   Overcast
10:15 AM 66.2 °F 57.2 °F 73% 29.67 in 10.0 mi South 24.2 mph 29.9 mph N/A   Overcast
10:35 AM 68.0 °F 57.2 °F 68% 29.66 in 10.0 mi South 21.9 mph 27.6 mph N/A   Overcast
10:55 AM 69.8 °F 59.0 °F 68% 29.65 in 10.0 mi South 25.3 mph 33.4 mph N/A   Overcast
11:15 AM 69.8 °F 59.0 °F 68% 29.65 in 10.0 mi South 23.0 mph 28.8 mph N/A   Overcast
11:35 AM 69.8 °F 60.8 °F 73% 29.64 in 10.0 mi South 26.5 mph 32.2 mph N/A   Mostly Cloudy
11:55 AM 71.6 °F 60.8 °F 69% 29.63 in 10.0 mi South 24.2 mph 35.7 mph N/A   Overcast
12:15 PM 73.4 °F 60.8 °F 65% 29.62 in 10.0 mi South 28.8 mph 34.5 mph N/A   Mostly Cloudy
12:35 PM 73.4 °F 60.8 °F 65% 29.61 in 10.0 mi South 21.9 mph 33.4 mph N/A   Overcast
12:55 PM 73.4 °F 60.8 °F 65% 29.60 in 10.0 mi South 27.6 mph 34.5 mph N/A   Overcast
1:15 PM 73.4 °F 60.8 °F 65% 29.60 in 10.0 mi South 21.9 mph 33.4 mph N/A   Overcast
1:35 PM 73.4 °F 60.8 °F 65% 29.59 in 10.0 mi South 21.9 mph 32.2 mph N/A   Overcast
1:55 PM 73.4 °F 60.8 °F 65% 29.57 in 10.0 mi South 23.0 mph 29.9 mph N/A   Overcast
2:15 PM 73.4 °F 60.8 °F 65% 29.57 in 10.0 mi SSW 21.9 mph 28.8 mph N/A   Overcast
2:35 PM 73.4 °F 62.6 °F 69% 29.56 in 10.0 mi SSW 17.3 mph - N/A   Overcast
2:55 PM 73.4 °F 62.6 °F 69% 29.55 in 10.0 mi South 20.7 mph - N/A   Overcast
3:15 PM 75.2 °F 62.6 °F 65% 29.53 in 10.0 mi South 19.6 mph 23.0 mph N/A   Overcast
3:35 PM 73.4 °F 62.6 °F 69% 29.53 in 10.0 mi South 15.0 mph - N/A   Overcast
3:55 PM 73.4 °F 62.6 °F 69% 29.53 in 10.0 mi South 13.8 mph - N/A   Overcast
4:15 PM 71.6 °F 64.4 °F 78% 29.53 in 10.0 mi SSW 18.4 mph - N/A   Overcast
4:35 PM 69.8 °F 66.2 °F 88% 29.53 in 5.0 mi SW 15.0 mph 24.2 mph N/A   Overcast
4:55 PM 69.8 °F 66.2 °F 88% 29.51 in 10.0 mi SSW 13.8 mph - N/A   Mostly Cloudy
5:15 PM 69.8 °F 66.2 °F 88% 29.49 in 10.0 mi South 17.3 mph - N/A   Mostly Cloudy
5:36 PM 69.8 °F 66.2 °F 88% 29.48 in 10.0 mi SW 12.7 mph - N/A Thunderstorm Overcast
5:55 PM 68.0 °F 64.4 °F 88% 29.48 in 2.5 mi West 17.3 mph 29.9 mph 0.20 in Thunderstorm Thunderstorm
6:35 PM 66.2 °F 66.2 °F 100% 29.47 in 10.0 mi SW 12.7 mph - 0.07 in   Scattered Clouds
7:15 PM 66.2 °F 64.4 °F 94% 29.50 in 10.0 mi SW 11.5 mph - N/A   Mostly Cloudy
7:55 PM 64.4 °F 59.0 °F 83% 29.55 in 8.0 mi NW 21.9 mph 33.4 mph N/A Thunderstorm Thunderstorm
8:35 PM 62.6 °F 57.2 °F 82% 29.56 in 10.0 mi WSW 3.5 mph - N/A   Mostly Cloudy
8:55 PM 60.8 °F 57.2 °F 88% 29.61 in 10.0 mi West 13.8 mph - 0.01 in   Scattered Clouds
9:15 PM 60.8 °F 59.0 °F 94% 29.59 in 10.0 mi WNW 11.5 mph - N/A   Mostly Cloudy
9:35 PM 60.8 °F 57.2 °F 88% 29.62 in 10.0 mi West 13.8 mph 19.6 mph N/A   Scattered Clouds
9:56 PM 62.6 °F 57.2 °F 82% 29.61 in 10.0 mi WNW 16.1 mph - N/A   Clear
10:15 PM 60.8 °F 55.4 °F 82% 29.60 in 10.0 mi NW 13.8 mph - N/A   Clear
10:35 PM 59.0 °F 53.6 °F 82% 29.63 in 10.0 mi NW 10.4 mph - N/A   Clear
10:55 PM 57.2 °F 53.6 °F 88% 29.65 in 10.0 mi NW 9.2 mph - N/A   Clear
11:15 PM 57.2 °F 53.6 °F 88% 29.66 in 10.0 mi NW 8.1 mph - N/A   Clear
11:35 PM 57.2 °F 51.8 °F 82% 29.67 in 10.0 mi WNW 6.9 mph - N/A   Clear
11:56 PM 55.4 °F 51.8 °F 88% 29.68 in 10.0 mi WNW 4.6 mph - N/A   Clear